Location: Coupvray
(48.8929°N, 2.7967°E)
Time: 21:56:13
(UTC+00:00)

Cosmos 724 - Pass Details

Date: 31 October 2020
Orbit: 851 x 943 km, 65.6° (Epoch: 01 December)

Event Time Altitude Azimuth Distance (km) Brightness Sun altitude
Exits shadow 01:44:17 13° 21° (NNE) 2,429 7.0 -46.0°
Drops below altitude 10° 01:45:07 10° 28° (NNE) 2,618 7.2 -45.9°
Sets 01:48:30 0° 46° (NE) 3,579 8.2 -45.5°
